This is the latest recevied weather packets stored in our database for station/object IR9AK-10. If no packets are shown the sender has not sent any weather packets the latest 10 day(s).
| Time | Temp. | Humidity | Pressure | Rain* | Wind** | Luminosity | Snow |
|---|---|---|---|---|---|---|---|
| 1778143284 | 24.44° C | 40% | 1055.5 hPa | - | - | - | - |
| 1778142685 | 23.89° C | 40% | 1055.6 hPa | - | - | - | - |
| 1778142086 | 23.89° C | 40% | 1055.5 hPa | - | - | - | - |
| 1778141488 | 23.33° C | 40% | 1055.6 hPa | - | - | - | - |
| 1778140889 | 23.33° C | 57% | 1055.6 hPa | - | - | - | - |
| 1778140290 | 23.33° C | 43% | 1055.6 hPa | - | - | - | - |
| 1778139691 | 22.78° C | 44% | 1055.7 hPa | - | - | - | - |
| 1778139092 | 22.78° C | 43% | 1055.8 hPa | - | - | - | - |
| 1778138493 | 22.22° C | 44% | 1055.8 hPa | - | - | - | - |
| 1778137895 | 22.78° C | 43% | 1056 hPa | - | - | - | - |
| 1778137295 | 22.78° C | 42% | 1056.2 hPa | - | - | - | - |
| 1778136697 | 22.78° C | 41% | 1056.1 hPa | - | - | - | - |
| 1778136098 | 22.22° C | 41% | 1056.1 hPa | - | - | - | - |
| 1778135499 | 22.22° C | 41% | 1056.2 hPa | - | - | - | - |
| 1778134900 | 22.22° C | 38% | 1055.9 hPa | - | - | - | - |
| 1778134312 | 21.67° C | 37% | 1056.1 hPa | - | - | - | - |
| 1778134300 | 21.67° C | 37% | 1056.1 hPa | - | - | - | - |
| 1778133700 | 21.67° C | 37% | 1056.1 hPa | - | - | - | - |
| 1778133100 | 21.11° C | 36% | 1056.2 hPa | - | - | - | - |
| 1778132501 | 21.11° C | 36% | 1056.2 hPa | - | - | - | - |
| 1778131902 | 21.11° C | 36% | 1056.4 hPa | - | - | - | - |
| 1778131303 | 21.11° C | 37% | 1056.3 hPa | - | - | - | - |
| 1778130705 | 21.11° C | 37% | 1056.3 hPa | - | - | - | - |
| 1778130105 | 20.56° C | 37% | 1056.3 hPa | - | - | - | - |
| 1778129507 | 20.56° C | 37% | 1056.3 hPa | - | - | - | - |
* Rain since midnight (hover to see other rain measurements)
** Current wind speed in m/s (hover to see current wind gust speed)